User: anonymous
Location: Unspecified
(0.0000°N, 0.0000°E)
Time: 22:35:05
(UTC+02:00)
Language:

AO-7 - Orbit

View from above orbital plane
View from above orbital plane
View from above satellite
View from above satellite

Ground track
Ground track

The orbit data is extracted from the following two-line orbital elements,

1 07530U 74089B   14205.96375161 -.00000047  00000-0 -24049-4 0   226
2 07530 101.4747 186.5555 0011584 219.5433 206.3737 12.53606140816250
Epoch (UTC): 24 July 2014 23:07:48
Eccentricity: 0.0011584
inclination: 101.4747°
perigee height: 1440 km
apogee height: 1458 km
right ascension of ascending node: 186.5555°
argument of perigee: 219.5433°
revolutions per day: 12.53606140
mean anomaly at epoch: 206.3737°
orbit number at epoch: 81625

The dashed part of the orbit path shows where the satellite is in the earth's shadow,  

DLR